Wetbulb
63.55 62.83 61.91 61.90 60.78 59.38 58.29 59.75 59.73 59.71 60.10 60.70 61.11 60.97 60.60 59.55 59.50 59.05 58.78 57.86 57.13 56.79
64.15 62.83 62.17 62.47 61.56 61.30 61.91 61.36 61.44 60.94 60.83 61.11 61.15 61.34 60.54 61.44 59.53 59.17 58.50 58.31 57.51 56.19
64.56 63.53 63.43 62.21 61.74 61.94 62.37 62.91 61.34 61.55 61.51 62.21 63.54 61.68 61.60 60.92 59.06 58.44 58.17 58.27 56.85 55.99
64.79 65.52 63.68 62.80 62.65 62.92 62.52 62.50 62.17 62.40 63.43 62.58 61.61 60.95 58.60 55.91 56.08 55.83 55.39 54.85 54.72 53.66
65.67 64.41 63.84 63.03 62.97 62.26 62.24 62.69 62.88 63.16 62.16 58.52 55.64 53.22 52.48 52.23 52.37 52.70 53.79 53.48 52.74 52.20
59.81 59.05 61.78 61.37 61.62 61.74 61.42 62.97 63.51 61.59 56.59 53.74 51.82 50.42 49.69 49.82 50.31 50.94 52.18 53.26 52.60 52.72
62.51 62.83 61.39 60.82 60.88 61.88 63.52 61.85 60.16 57.35 54.95 51.80 49.82 49.12 48.26 48.33 47.34 48.82 52.72 54.96 53.60 53.08
63.17 60.88 60.37 62.45 63.89 63.15 62.60 59.55 59.01 57.45 53.99 50.12 48.56 48.62 45.64 45.79 46.37 46.79 50.88 54.28 53.62 53.32
61.06 60.58 61.55 61.30 60.85 60.72 58.34 57.47 57.36 55.97 55.27 49.92 50.04 47.66 48.75 48.82 46.76 48.82 51.27 51.52 52.24 52.91
60.77 59.90 61.52 62.14 59.27 58.28 57.32 56.45 55.68 54.44 55.09 51.23 47.41 47.04 46.92 49.03 48.77 48.32 48.35 50.87 49.92 50.96
59.76 59.58 60.63 58.22 57.38 56.90 56.10 56.11 54.83 54.41 54.23 52.47 49.85 47.27 46.25 47.60 48.57 47.90 47.99 50.11 49.19 49.20
58.29 56.13 56.89 56.40 54.97 55.60 55.82 54.89 54.79 55.10 53.83 52.69 51.13 46.97 46.22 46.49 47.20 46.71 47.37 48.43 48.63 50.07
56.82 55.79 55.23 54.98 56.02 54.74 54.52 55.19 55.80 53.94 54.05 53.89 52.29 46.38 45.95 45.95 46.09 44.49 44.98 45.55 47.04 48.54
55.52 55.18 55.83 55.43 55.39 54.39 54.30 54.22 53.83 54.43 53.86 53.26 53.34 47.28 45.67 45.65 45.57 44.86 43.70 44.00 45.89 47.27
MSLP
1015.62 1015.98 1016.39 1016.61 1016.71 1016.72 1016.84 1016.69 1016.51 1016.54 1016.48 1016.35 1016.17 1016.21 1016.38 1016.67 1016.62 1016.67 1016.50 1016.45 1016.38 1016.30
1015.17 1015.80 1016.07 1016.26 1016.27 1016.27 1016.39 1016.30 1016.21 1016.02 1016.20 1015.99 1015.80 1015.87 1016.07 1016.16 1016.20 1016.14 1016.04 1015.92 1015.81 1015.84
1014.98 1015.30 1015.79 1015.74 1015.83 1015.89 1015.94 1015.98 1015.88 1015.83 1015.67 1015.48 1015.65 1015.67 1015.72 1015.89 1015.87 1016.00 1015.82 1015.66 1015.75 1015.67
1016.16 1015.46 1015.66 1015.35 1015.35 1015.34 1015.51 1015.56 1015.50 1015.31 1015.42 1015.68 1015.78 1015.88 1016.02 1016.12 1016.14 1016.02 1015.92 1015.69 1015.68 1015.65
1015.56 1015.10 1015.38 1015.06 1014.88 1014.85 1015.04 1015.06 1015.06 1015.16 1015.45 1016.04 1016.10 1016.37 1016.41 1016.43 1016.32 1016.24 1016.12 1015.79 1015.61 1015.54
1014.92 1014.86 1014.77 1014.33 1014.33 1014.45 1014.62 1014.74 1014.78 1015.14 1015.62 1016.10 1016.34 1016.57 1016.66 1016.66 1016.52 1016.26 1015.96 1015.68 1015.47 1015.46
1014.08 1013.98 1013.88 1013.77 1013.88 1014.04 1014.22 1014.56 1014.88 1015.32 1015.80 1016.13 1016.36 1016.66 1016.70 1016.70 1016.58 1016.27 1015.88 1015.54 1015.16 1015.21
1013.11 1013.03 1013.08 1013.30 1013.44 1013.71 1014.00 1014.27 1014.70 1015.27 1015.74 1015.98 1016.26 1016.69 1016.84 1016.78 1016.61 1016.38 1015.94 1015.44 1014.96 1014.77
1012.45 1012.58 1012.62 1012.99 1013.32 1013.56 1013.94 1014.31 1014.66 1015.25 1015.47 1015.91 1016.44 1016.73 1016.82 1016.80 1016.61 1016.25 1015.92 1015.51 1014.89 1014.50
1012.24 1012.52 1013.09 1013.05 1013.38 1013.74 1014.04 1014.26 1014.60 1014.93 1015.41 1016.05 1016.28 1016.40 1016.41 1016.44 1016.26 1016.04 1015.66 1015.23 1014.77 1014.42
1012.78 1013.00 1013.18 1013.34 1013.38 1013.62 1013.90 1014.16 1014.63 1015.06 1015.16 1015.50 1015.80 1015.87 1016.06 1016.20 1016.10 1015.86 1015.41 1015.02 1014.69 1014.41
1013.20 1013.25 1013.46 1013.45 1013.67 1013.74 1013.96 1014.25 1014.50 1014.72 1014.90 1015.14 1015.28 1015.28 1015.64 1015.91 1015.86 1015.69 1015.43 1014.98 1014.59 1014.28
1013.63 1013.74 1013.92 1014.03 1014.10 1013.78 1013.83 1014.22 1014.23 1014.60 1014.70 1014.67 1014.90 1015.03 1015.48 1015.61 1015.69 1015.64 1015.24 1014.81 1014.42 1014.18
1013.34 1013.25 1013.58 1013.80 1013.84 1013.80 1013.95 1014.23 1014.36 1014.56 1014.30 1014.36 1014.51 1014.83 1015.14 1015.26 1015.32 1015.21 1014.96 1014.63 1014.16 1013.77
Wind_Speed
7 4 3 3 3 0 1 3 3 4 5 6 7 6 4 3 4 4 5 7 5 4
6 5 4 4 3 3 1 2 5 5 5 7 6 5 5 3 5 4 5 6 6 3
6 7 6 6 6 5 5 3 4 5 7 6 5 5 3 2 4 5 5 4 4 4
5 7 6 6 7 6 5 6 5 7 3 3 5 6 6 5 5 6 5 4 4 4
16 6 5 6 5 3 2 4 6 2 6 6 7 7 7 6 6 6 7 5 4 5
10 7 8 6 5 4 4 2 1 4 8 6 6 6 6 6 6 6 6 6 4 4
10 10 8 7 7 5 4 3 6 7 7 6 6 5 6 6 7 7 6 6 4 3
8 8 8 6 6 6 5 5 7 7 7 6 6 4 5 6 6 6 7 7 5 5
7 6 6 6 6 7 7 5 6 4 6 7 4 5 2 3 5 6 6 6 6 5
5 4 6 7 7 6 6 5 4 2 5 6 5 4 3 6 4 6 6 6 6 7
6 6 6 6 7 6 4 5 3 1 4 7 6 9 6 5 4 6 7 6 7 6
5 6 5 5 5 4 4 2 3 3 5 5 7 11 7 1 4 5 6 7 7 1
5 7 6 5 3 2 2 2 2 3 5 7 5 9 8 2 2 4 4 5 7 8
4 5 2 3 1 1 0 2 3 5 7 6 5 7 9 6 2 3 4 4 5 5
Wind_Direction
194 195 231 238 214 309 258 176 201 192 211 233 243 249 253 252 266 275 265 272 267 257
182 192 195 185 188 217 255 242 158 210 228 244 255 250 256 249 278 272 274 266 271 260
187 188 224 200 214 229 241 237 249 249 249 259 280 300 277 293 288 299 300 292 318 338
351 252 235 207 224 227 228 231 232 246 288 91 67 40 48 26 19 22 0 5 34 2
222 217 265 226 216 201 240 252 250 111 96 81 71 48 38 24 0 5 346 328 15 344
182 202 226 199 199 210 232 298 125 73 110 103 77 52 31 24 357 344 326 326 1 2
184 208 208 201 202 204 127 80 84 116 114 105 90 66 32 9 347 334 322 316 334 117
199 188 193 192 162 137 121 102 95 123 124 116 90 63 31 1 335 320 311 309 294 181
192 207 181 147 121 108 106 95 86 123 150 125 96 103 23 310 325 314 303 304 305 311
168 101 130 134 119 115 121 113 109 73 93 128 145 173 267 321 337 324 318 309 317 324
78 95 131 130 134 132 125 118 123 261 159 161 194 200 225 317 325 316 314 322 326 318
65 67 100 108 115 112 118 139 174 230 240 212 212 208 195 358 315 312 325 324 327 266
74 70 67 75 85 88 104 201 199 268 250 245 231 179 188 198 281 314 314 302 301 264
91 84 104 127 85 101 1 313 289 268 278 273 252 178 187 215 235 269 296 296 300 286